Location: Hannover
(52.4091°N, 9.7504°E)
Time: 16:54:14
(UTC+01:00)

ISS - Pass Details

Date: 18 November 2025
Orbit: 416 x 420 km, 51.6° (Epoch: 12 December)

Event Time Altitude Azimuth Distance (km) Brightness Sun altitude
Rises 17:22:06 0° 223° (SW) 2,363 1.3 -8.8°
Reaches altitude 10° 17:24:22 10° 211° (SSW) 1,500 -0.1 -9.1°
Maximum altitude 17:27:18 28° 151° (SSE) 827 -2.4 -9.5°
Enters shadow 17:29:47 13° 94° (E) 1,349 -1.8 -9.9°
